RH
74 75 79 80 82 84 80 85 89 93 96 93 91 90 89 89 90 91 91 91 90 87 84 84 85 83 89 60 39 52 77 78 63 34 30 27 34 36 31 24 24 22 19 24 43 50 52
70 78 80 81 81 80 74 83 90 89 92 95 94 91 90 89 90 91 91 91 91 90 87 85 84 82 90 31 35 52 55 47 35 32 28 29 30 27 27 22 22 22 36 48 48 47 40
74 77 81 81 83 83 83 84 87 91 91 96 96 94 92 90 90 91 90 90 91 90 88 86 83 77 86 30 43 48 37 36 29 27 29 28 29 30 27 25 27 30 48 48 48 46 42
77 78 78 81 82 85 86 86 87 88 90 94 96 95 94 92 90 91 90 91 91 90 88 85 80 88 83 35 48 40 36 29 24 24 22 23 27 29 30 25 27 24 34 37 40 44 44
76 78 79 78 82 83 85 87 87 86 87 89 94 96 95 93 92 91 90 90 91 90 87 88 92 92 68 40 41 39 29 28 22 23 24 18 26 32 28 35 34 30 30 35 40 42 41
76 75 77 80 78 82 83 83 86 87 88 90 92 96 96 92 92 90 90 90 89 88 83 72 69 65 40 29 28 27 35 27 28 31 28 32 35 37 38 36 39 39 31 31 35 38 49
77 77 76 78 80 79 78 79 83 88 89 90 92 94 96 91 90 88 92 92 71 81 78 41 34 35 30 29 26 25 25 27 30 31 40 38 38 42 38 36 35 33 36 35 28 22 42
80 74 77 76 76 79 73 77 81 83 87 88 91 94 96 90 89 90 93 84 60 63 69 56 53 46 37 35 40 26 20 26 33 37 47 42 46 34 33 34 36 33 37 35 28 23 26
77 82 76 76 76 76 77 72 78 84 84 86 87 95 96 90 89 96 94 77 56 59 63 52 55 54 47 40 42 30 21 29 34 38 43 40 31 32 32 29 34 38 39 35 33 22 29
74 78 84 79 76 77 76 75 76 80 84 86 87 94 96 90 92 86 89 70 69 69 69 54 59 49 41 28 30 24 21 24 36 35 39 36 32 35 37 37 36 41 32 30 32 28 30
74 75 79 82 81 75 75 79 79 78 82 86 90 94 97 88 80 92 71 67 71 74 63 28 48 30 26 26 26 25 19 24 28 35 34 34 35 36 36 33 32 33 31 33 38 37 42
74 72 73 77 84 78 76 79 79 77 83 83 90 94 96 92 95 80 72 77 80 81 68 39 38 32 30 27 28 23 21 24 26 34 38 34 33 33 31 33 31 29 37 41 51 49 60
74 73 72 72 80 89 76 77 80 79 78 83 88 93 96 79 83 85 83 88 93 92 34 43 38 31 30 33 28 29 26 34 37 42 44 37 36 35 37 36 35 34 40 48 48 68 62
77 74 73 72 77 83 84 75 77 79 77 78 86 95 95 78 87 88 90 96 94 67 62 44 34 34 32 31 31 32 31 32 31 36 47 42 48 40 41 36 41 47 40 58 48 72 53
79 77 75 74 74 78 81 77 75 81 81 83 87 97 99 90 81 89 98 99 78 63 50 32 34 38 39 32 30 33 33 34 27 33 37 56 46 48 42 39 36 43 46 43 75 86 82
82 79 77 76 73 78 80 80 74 78 81 83 98 95 91 79 78 87 99 78 67 54 51 49 40 37 41 37 34 34 35 29 28 28 32 44 45 50 44 44 42 40 38 52 68 68 70
82 81 77 76 76 87 84 82 74 78 80 81 97 98 80 82 82 96 93 74 62 46 50 61 56 42 37 37 36 37 32 26 29 33 36 51 40 45 51 47 40 43 42 45 49 66 64
84 84 78 77 76 86 85 82 75 74 79 85 94 95 94 82 99 85 81 68 60 50 52 58 61 58 44 37 36 36 33 28 31 45 41 47 52 70 42 42 39 45 45 44 68 48 84
86 86 80 77 77 87 90 89 79 74 79 88 94 90 93 77 95 93 70 63 60 53 53 58 60 54 48 40 38 38 37 41 47 42 47 49 59 72 50 42 43 45 40 48 56 71 66
88 88 83 77 77 84 84 88 78 76 73 91 95 97 98 94 67 69 73 72 72 56 56 57 61 59 58 46 43 45 47 53 54 48 70 49 52 52 61 46 44 53 44 45 50 78 66
88 89 85 78 77 79 80 80 78 72 74 91 97 78 77 96 89 80 63 64 72 67 58 51 59 63 65 64 54 54 61 59 53 66 57 48 50 47 43 38 45 41 41 44 44 48 56
91 90 86 79 78 75 78 79 76 74 74 96 96 89 80 87 70 77 71 68 63 63 63 58 49 50 47 62 49 48 55 58 53 56 54 57 56 62 66 54 52 49 42 43 45 43 46
90 90 86 80 79 78 79 81 75 76 78 98 90 85 90 75 76 78 72 64 59 59 57 47 46 48 64 55 48 47 56 54 48 53 61 60 73 73 62 67 62 68 53 45 41 38 40
92 88 86 83 81 81 81 83 79 78 80 97 87 93 99 84 79 71 60 60 57 56 56 47 43 57 52 61 57 54 60 65 72 78 62 73 72 81 80 73 76 49 44 39 43 45 44
91 87 86 82 80 83 83 78 78 77 76 96 96 93 98 98 71 69 67 62 55 50 54 45 52 39 55 61 74 75 81 72 67 70 78 68 83 87 77 81 59 46 40 43 43 48 48
89 88 85 81 82 81 77 76 80 80 80 92 94 96 97 99 77 61 69 59 67 62 62 69 42 74 72 89 90 76 81 72 76 70 64 69 84 82 90 74 72 57 44 36 41 64 46
89 88 83 79 78 76 76 80 80 80 79 91 95 93 94 98 88 68 76 69 53 58 63 74 82 83 76 98 92 83 78 62 74 75 76 89 93 87 97 83 68 47 42 32 48 51 53
88 82 79 79 78 79 80 82 81 82 88 92 92 96 95 95 91 93 83 70 58 54 69 76 85 90 97 90 89 90 89 82 79 70 70 77 90 93 94 84 65 48 48 42 51 65 58
82 80 78 77 77 79 80 82 83 82 82 85 95 95 93 98 94 84 75 72 84 47 50 94 67 82 85 92 98 97 94 95 84 88 74 64 72 81 72 73 56 54 47 48 59 56 57
Wind_Speed
15 15 13 12 11 11 14 12 10 10 10 10 9 9 9 8 8 9 9 10 10 11 11 13 14 15 6 4 9 1 8 11 6 6 4 3 3 2 3 3 2 5 5 6 6 7 2
19 15 14 13 12 13 14 12 10 11 10 10 9 9 9 9 8 9 9 10 9 10 10 11 11 13 2 6 1 4 9 6 5 4 5 4 4 5 5 5 4 4 3 1 1 3 4
19 18 16 15 14 13 12 11 12 12 12 11 10 9 9 9 9 9 10 10 9 10 8 8 7 4 2 16 3 2 7 5 4 5 4 5 3 2 4 6 2 3 4 3 2 2 4
21 18 18 16 15 13 12 11 11 12 11 11 10 10 8 8 9 9 10 12 10 10 8 5 4 2 9 4 0 3 4 5 5 5 4 4 2 3 3 4 6 2 4 3 1 6 1
22 20 19 18 16 15 13 12 12 11 13 12 11 11 9 7 7 9 11 13 12 11 6 4 1 2 11 7 2 7 8 6 4 4 4 5 3 1 5 3 5 6 2 1 4 7 2
25 23 21 19 18 16 15 14 13 12 12 12 12 11 9 7 6 8 11 13 7 3 1 3 2 3 6 2 3 3 5 4 1 2 4 2 5 3 3 4 3 2 3 3 2 2 3
26 25 24 22 20 18 18 17 14 12 11 11 13 11 8 8 5 5 6 4 3 1 2 8 4 5 5 8 3 3 5 7 2 4 1 4 5 3 3 4 1 3 2 6 4 6 8
28 28 26 24 22 21 21 19 16 13 11 10 12 10 8 8 3 2 1 1 3 2 8 11 14 9 9 3 5 5 8 6 5 5 1 4 2 5 4 2 4 8 5 9 9 3 10
27 27 29 26 25 23 21 21 18 14 11 11 11 9 8 6 3 1 3 6 1 4 4 8 7 7 6 10 7 7 9 5 4 5 5 5 5 4 4 3 3 4 4 6 5 2 5
31 27 26 29 28 24 22 21 20 16 12 12 10 10 7 8 1 3 4 4 8 6 3 8 5 9 7 8 5 9 7 7 2 10 6 5 2 1 3 2 4 5 3 7 4 3 2
32 29 26 24 30 27 23 21 19 17 16 12 11 9 10 11 1 3 3 4 4 2 3 4 5 2 8 10 4 6 6 4 8 6 6 7 6 3 4 4 4 9 5 1 1 3 6
33 32 30 27 25 29 25 22 20 17 15 13 10 10 12 5 2 5 6 4 1 7 9 5 7 7 6 5 3 2 5 4 4 4 2 5 2 3 6 3 5 4 2 7 4 3 3
34 33 31 29 27 26 27 24 20 18 15 14 12 11 12 6 4 2 2 1 1 5 5 5 6 7 6 6 5 4 5 6 7 4 3 2 2 3 1 3 3 7 5 4 5 5 5
36 35 33 31 29 27 28 26 22 19 19 17 12 9 11 5 2 3 2 4 11 7 7 6 3 5 9 6 7 6 6 5 3 2 3 5 6 5 2 4 4 2 5 6 3 3 3
38 36 34 32 31 29 30 28 24 20 16 14 11 4 5 7 3 3 2 12 8 7 5 4 2 5 4 4 6 6 8 8 9 9 7 4 5 1 3 2 2 2 1 3 7 4 3
39 37 35 33 32 31 33 30 25 22 19 15 4 4 8 8 8 4 6 19 8 6 3 4 9 6 9 8 8 7 8 5 6 11 6 8 2 2 3 1 2 2 6 2 3 3 3
40 38 36 33 30 28 35 32 28 26 23 19 5 6 9 12 8 4 15 15 17 14 3 3 3 4 8 8 10 7 8 6 7 5 6 6 5 4 1 5 8 1 2 2 5 6 5
40 39 37 33 30 28 31 32 29 27 25 19 6 10 11 14 8 8 16 8 4 19 5 4 4 5 5 8 8 9 11 10 8 11 10 8 7 5 10 4 4 2 2 6 6 5 1
41 41 39 35 33 31 27 27 30 27 27 9 7 6 10 14 14 15 8 18 7 9 10 7 6 6 1 7 6 7 8 4 9 9 11 9 1 3 8 6 3 3 5 5 4 4 7
41 41 40 38 36 34 34 32 30 29 28 11 4 9 8 11 16 18 21 15 23 15 13 1 3 3 2 4 3 7 6 2 5 3 3 11 5 8 8 9 4 2 3 4 6 4 4
41 41 41 39 37 37 36 37 36 31 29 12 5 10 8 18 23 20 20 14 22 15 16 9 5 8 2 4 1 4 3 2 4 6 1 4 6 4 3 3 5 6 5 6 7 6 7
39 41 41 39 37 37 36 38 37 33 31 13 6 5 9 2 17 27 19 23 26 24 10 11 15 7 12 10 8 8 6 4 6 2 4 2 4 5 4 1 2 4 7 6 5 4 7
37 41 40 39 37 36 37 36 35 31 29 7 8 4 3 12 20 19 31 23 23 18 17 10 20 13 6 13 11 6 3 6 11 11 6 5 8 5 5 1 1 6 9 8 7 6 7
37 41 40 39 37 38 36 34 33 33 31 4 8 2 4 11 15 25 23 23 23 28 18 19 20 5 6 6 5 6 10 12 10 6 5 8 6 3 4 3 1 9 2 5 6 3 4
41 41 40 38 38 37 37 37 34 33 33 10 2 6 3 4 14 15 22 24 16 18 15 19 6 9 10 4 4 5 6 7 4 7 6 4 7 4 6 4 5 5 5 7 7 3 2
39 39 38 38 38 37 36 33 30 30 31 14 11 5 4 4 13 8 21 18 18 17 9 7 14 2 7 4 4 6 6 6 3 3 5 7 6 6 4 5 9 9 4 4 6 2 5
37 37 36 36 35 33 32 30 29 29 31 14 6 11 5 3 5 12 13 14 12 13 8 6 6 3 3 3 4 4 4 5 8 11 7 3 4 6 3 3 8 8 5 5 6 10 8
33 33 32 32 31 30 30 28 27 29 25 14 7 7 2 3 6 4 3 8 11 14 13 6 4 1 4 5 5 5 5 6 5 6 8 8 8 4 4 4 8 7 5 9 8 2 7
30 30 29 28 27 27 27 25 26 25 22 19 6 6 3 3 5 7 12 17 9 11 13 4 6 7 7 5 1 4 3 2 5 4 2 3 9 9 10 9 4 4 3 4 6 9 7
Wind_Direction
271 270 272 276 277 279 279 280 281 277 255 250 255 264 267 274 286 292 298 301 310 313 326 328 330 333 353 304 253 1 77 128 132 144 157 145 122 184 250 237 172 224 271 222 201 128 154
270 268 264 263 265 275 279 280 283 281 271 251 253 258 266 270 278 288 295 299 308 306 321 329 335 334 351 276 269 112 113 136 148 161 184 188 195 200 271 250 180 200 201 89 231 149 121
269 272 271 260 257 252 261 274 285 283 284 261 244 254 261 269 276 290 296 295 301 297 308 325 338 351 296 242 64 74 145 201 196 173 182 224 196 66 267 310 291 106 72 28 307 59 90
265 261 266 271 260 252 243 252 267 280 281 279 256 250 254 265 277 292 296 293 292 289 299 307 351 61 253 252 220 252 176 283 210 224 277 279 229 224 241 308 15 65 49 53 20 105 9
261 259 257 259 266 257 254 245 252 266 279 274 268 255 247 246 267 290 295 291 283 276 273 248 73 95 267 307 237 227 173 229 166 196 257 278 46 33 7 49 13 6 170 182 323 148 134
254 255 256 254 253 257 253 249 252 254 263 277 270 256 251 246 263 295 300 295 288 292 136 170 245 336 272 265 301 195 186 180 203 348 334 82 53 33 29 69 185 305 19 358 220 191 185
247 251 248 251 253 249 253 254 243 249 255 268 269 257 250 243 247 301 344 360 324 249 180 205 190 259 272 308 292 264 150 125 257 65 210 343 63 232 226 236 44 225 15 345 277 213 144
269 247 245 244 246 250 249 252 246 238 248 259 276 266 250 230 215 279 57 263 259 267 308 230 240 250 261 81 297 294 129 132 164 202 195 11 235 217 261 175 56 17 354 294 287 276 173
259 261 242 240 241 243 243 251 252 234 231 252 268 265 243 208 161 127 219 229 228 329 280 281 200 207 206 151 208 255 146 135 168 161 219 159 245 122 292 329 12 289 222 252 239 14 47
254 253 254 246 230 236 239 240 242 251 230 240 245 265 213 146 62 161 230 263 282 188 348 271 222 250 169 162 245 209 173 142 170 208 172 224 243 309 181 219 157 296 270 221 271 77 138
244 245 244 250 239 223 231 235 230 235 237 231 240 241 175 163 224 198 128 279 124 64 348 236 193 191 155 158 170 224 167 77 181 207 123 242 161 192 216 223 149 237 353 177 88 108 103
238 240 240 241 246 227 214 225 227 228 232 224 229 233 172 228 283 242 303 326 54 55 250 290 161 166 137 168 199 154 143 83 157 148 232 230 224 180 205 262 213 259 114 24 53 68 45
233 235 236 236 233 240 214 206 215 220 227 227 219 228 172 168 215 272 261 131 140 172 310 231 184 161 168 159 215 153 142 150 158 128 226 9 206 323 97 305 10 59 44 356 4 10 218
228 228 233 232 229 226 225 205 200 215 222 219 211 219 212 207 162 343 141 187 216 209 248 304 195 118 179 141 223 180 147 198 238 132 124 161 320 167 217 179 183 55 146 151 230 194 274
226 223 225 228 227 225 219 210 194 189 214 199 189 217 227 199 169 81 167 215 191 217 217 241 90 134 214 204 157 149 185 189 208 172 142 142 267 255 177 188 178 183 31 161 99 355 47
224 218 219 221 227 224 211 202 192 181 194 193 159 212 219 157 159 95 225 221 220 218 332 320 201 173 178 191 165 151 176 208 217 185 159 208 170 244 306 113 252 173 160 82 17 152 243
222 216 213 216 220 222 195 194 186 182 184 187 166 223 157 144 149 141 218 214 219 247 15 315 309 212 209 168 176 177 199 246 210 164 120 144 131 252 109 182 201 168 202 82 123 133 171
220 212 206 208 208 209 194 188 182 184 172 174 184 204 160 150 182 196 217 181 205 231 204 277 303 249 220 186 185 191 198 205 182 150 161 200 142 186 218 173 133 129 261 148 128 222 192
216 207 199 198 199 188 173 182 176 177 173 165 181 197 177 164 199 210 197 209 224 199 216 191 249 229 246 210 182 185 196 199 162 154 162 179 181 71 336 342 46 215 204 138 108 74 194
214 202 193 192 195 187 186 180 181 180 182 171 190 181 170 185 222 203 193 200 210 221 252 251 279 282 251 268 234 177 180 172 148 163 167 115 134 160 187 210 161 216 240 166 142 120 197
211 195 188 187 190 193 186 182 181 185 186 171 220 213 179 187 206 208 196 200 199 208 209 187 269 217 196 308 133 158 134 145 41 142 112 126 150 142 239 187 175 192 217 175 203 206 160
195 188 181 183 186 191 186 182 183 185 180 194 195 211 159 227 197 197 197 208 202 202 171 207 220 190 213 218 209 199 144 161 188 162 143 329 156 124 166 95 24 233 228 229 219 229 265
197 177 176 178 181 183 178 174 183 184 181 184 215 288 244 208 185 187 212 206 205 188 231 237 201 211 194 221 225 258 257 145 170 147 152 129 129 115 223 79 19 329 223 216 224 208 187
187 168 170 173 175 176 173 171 193 185 186 224 188 244 213 190 190 207 196 205 205 204 205 205 236 178 240 97 96 45 43 61 55 52 105 130 103 84 188 56 320 239 283 219 195 273 233
163 163 164 171 171 170 170 180 187 190 187 211 291 199 264 212 205 200 201 199 210 216 219 234 232 210 154 88 72 62 352 31 9 22 43 95 122 105 141 191 289 293 185 160 172 233 316
156 158 161 166 168 171 177 185 185 181 182 184 238 282 247 334 214 177 184 197 200 205 219 242 232 105 90 102 111 160 177 163 163 56 41 63 57 116 148 157 208 230 233 164 121 299 196
147 152 160 164 170 174 178 184 183 181 182 175 215 225 185 282 282 174 183 194 186 193 207 201 174 126 79 118 121 162 215 171 158 163 177 79 30 154 135 194 285 242 212 131 129 231 162
145 155 160 164 168 172 178 182 181 178 166 174 215 187 145 227 282 349 323 167 190 204 192 164 110 264 63 163 145 199 126 214 97 160 178 160 140 179 86 73 274 186 121 165 207 67 140
148 155 159 164 170 174 180 177 173 171 168 178 205 177 154 274 301 324 283 267 246 226 185 195 195 160 176 114 156 111 107 82 137 205 154 193 174 178 172 207 239 237 215 189 162 149 175